Regional Weather Roundup
Issued by NWS

Home | Current Version | Previous Version | Text Only | Print | Product List | Glossary On
Versions: 1 2 3 4 5 6 7 8 9 10 11 12 13 14 15 16 17 18 19 20 21 22 23 24 25 26 27 28 29 30 31 32 33 34 35 36 37 38 39 40 41 42 43 44 45 46 47 48 49 50
072
ASUS43 KLMK 261410
RWRKY
KENTUCKY REGIONAL WEATHER ROUNDUP
NATIONAL WEATHER SERVICE LOUISVILLE KY
1000 AM EDT SUN MAR 26 2017

NOTE "FAIR" INDICATES FEW OR NO CLOUDS BELOW 12,000 FEET
WITH NO SIGNIFICANT WEATHER AND/OR OBSTRUCTIONS TO VISIBILITY.

KYZ001>023-026-027-061>063-070>075-261500-
WESTERN AND SOUTH CENTRAL KENTUCKY

CITY           SKY/WX    TMP DP  RH WIND       PRES   REMARKS
PADUCAH        LGT RAIN  57  53  86 W9        29.94R
HENDERSON      CLOUDY    59  54  82 S12       29.92F
OWENSBORO      CLOUDY    59  57  94 S10       29.96R
HOPKINSVILLE   CLOUDY    60  58  92 S10       29.97R
BOWLING GREEN  CLOUDY    61  56  83 S9        30.00R
GLASGOW        CLOUDY   N/A N/A N/A SW6       30.01R
$$

KYZ024-025-028>034-038-045-046-053-261500-
NORTH CENTRAL KENTUCKY

CITY           SKY/WX    TMP DP  RH WIND       PRES   REMARKS
LOUISVILLE/SDF CLOUDY    60  56  86 S9        29.97S
LOUISVILLE/LOU CLOUDY    59  56  89 S6        29.98S
FORT KNOX      CLOUDY    59  59 100 S10       29.96S
$$

KYZ035>037-039>044-047>052-055>060-089>105-261500-
NORTHEAST KENTUCKY

CITY           SKY/WX    TMP DP  RH WIND       PRES   REMARKS
LEXINGTON      CLOUDY    58  55  90 SE9       30.01F
COVINGTON      CLOUDY    58  56  93 S10       29.99S
FRANKFORT      LGT RAIN  58  55  90 S8        29.99R
$$

KYZ054-064>069-076>088-106>120-261500-
SOUTHEAST KENTUCKY

CITY           SKY/WX    TMP DP  RH WIND       PRES   REMARKS
JACKSON        CLOUDY    57  53  86 VRB5      30.06S
LONDON         LGT RAIN  59  54  83 S3        30.04F
SOMERSET       LGT RAIN  55  55 100 S3        30.05R
MIDDLESBORO    CLOUDY    61  56  84 S9        30.08S
MONTICELLO     CLOUDY    60  56  86 VRB7      30.04S
$$





USA.gov is the U.S. government's official web portal to all federal, state and local government web resources and services.